Location: Lesignano de� Bagni
(44.6500°N, 10.3000°E)
Time: 16:28:35
(UTC+00:00)

Cosmos 1633 Rocket - Pass Details

Date: 03 March 2021
Orbit: 606 x 624 km, 82.5° (Epoch: 10 April)

Event Time Altitude Azimuth Distance (km) Brightness Sun altitude
Rises 17:55:24 0° 189° (S) 2,888 6.6 -9.0°
Reaches altitude 10° 17:57:37 10° 191° (S) 1,988 5.8 -9.4°
Maximum altitude 18:02:01 81° 278° (W) 638 3.2 -10.2°
Drops below altitude 10° 18:06:29 10° 7° (N) 2,008 5.6 -11.0°
Sets 18:08:44 0° 8° (N) 2,919 6.5 -11.4°
